Flag for Finland Weather past 2 weeks in Oulu, Finland

Now
41 °F

Clear.


Feels Like: 33 °F
Forecast: 33 / 50 °F
Wind: 14 mph from Southwest

Location: Oulu Airport


UV Index: 0 (Low)

Visibility: 10 mi


Pressure: 29.92 "Hg

Humidity: 57%

Dew point: 27 °F

Location of OuluLocation

Historic Weather in Oulu

°F

Oulu temperature yesterday

Maximum temperature yesterday: 41 °F (at 2:20 PM)
Minimum temperature yesterday: 34 °F (at 12:20 AM)
Average temperature yesterday: 37 °F

Past Weeks' High & Low Weather Summary

 TemperatureHumidityPressure
High50 °F (Apr 12, 4:20 PM)100% (Apr 4, 1:20 AM)30.27 "Hg (Apr 4, 1:20 AM)
Low14 °F (Apr 7, 6:20 AM)22% (Apr 10, 4:50 PM)29.15 "Hg (Apr 13, 10:50 PM)
Average33 °F70%29.76 "Hg
* Reported Apr 1 9:20 PM — Apr 16 9:50 PM, Oulu, Weather by CustomWeather, © 2014

Note: Actual official high and low records may vary slightly from our data, if they occured in-between our weather recording intervals... More about our weather records

Advertising

Historic Weather Conditions — Data for Previous 24 hours

 ConditionsComfort  
Time TempWeatherWind HumidityBarometerVisibility
9:50 PM
Apr 16
41 °FPassing clouds.14 mph57%29.95 "HgN/A
9:20 PM41 °FSunny.15 mph57%29.95 "Hg10 mi
8:50 PM41 °FPassing clouds.13 mph61%29.95 "HgN/A
8:20 PM41 °FPassing clouds.12 mph61%29.98 "HgN/A
7:50 PM41 °FSunny.10 mph61%29.98 "Hg10 mi
7:20 PM41 °FPartly sunny.10 mph61%29.98 "HgN/A
6:50 PM41 °FSunny.14 mph61%30.01 "Hg10 mi
6:20 PM41 °FSunny.12 mph61%30.01 "Hg10 mi
5:50 PM43 °FSunny.14 mph53%30.01 "Hg10 mi
5:20 PM43 °FSunny.12 mph49%30.04 "Hg10 mi
4:50 PM43 °FPassing clouds.10 mph46%30.04 "HgN/A
4:20 PM41 °FSunny.13 mph45%30.04 "Hg10 mi
3:50 PM41 °FSunny.13 mph42%30.07 "Hg10 mi
3:20 PM41 °FPassing clouds.9 mph45%30.07 "HgN/A
2:50 PM41 °FSunny.12 mph49%30.07 "Hg10 mi
2:20 PM41 °FPassing clouds.8 mph45%30.07 "HgN/A
1:50 PM39 °FSunny.9 mph52%30.09 "Hg10 mi
1:20 PM39 °FPassing clouds.8 mph65%30.09 "HgN/A
12:50 PM37 °FSunny.10 mph60%30.09 "Hg10 mi
12:20 PM36 °FSunny.14 mph60%30.09 "Hg10 mi
11:50 AM37 °FSunny.14 mph56%30.09 "Hg10 mi
11:20 AM37 °FPassing clouds.10 mph56%30.09 "HgN/A
10:50 AM36 °FPassing clouds.8 mph56%30.09 "HgN/A
10:20 AM36 °FPassing clouds.7 mph60%30.09 "HgN/A
9:50 AM34 °FPassing clouds.6 mph65%30.09 "HgN/A
9:20 AM34 °FPassing clouds.6 mph60%30.09 "HgN/A
8:50 AM34 °FSunny.7 mph65%30.09 "Hg10 mi
8:20 AM32 °FPassing clouds.8 mph64%30.09 "HgN/A
7:50 AM32 °FSunny.10 mph69%30.09 "Hg10 mi
7:20 AM30 °FSunny.10 mph75%30.09 "Hg10 mi
6:50 AM30 °FSunny.8 mph75%30.09 "Hg10 mi
6:20 AM30 °FClear.9 mph75%30.07 "Hg10 mi
5:50 AM30 °FClear.12 mph69%30.07 "Hg10 mi
5:20 AM30 °FClear.12 mph75%30.07 "Hg10 mi
4:50 AM30 °FClear.13 mph75%30.07 "Hg10 mi
4:20 AM32 °FClear.13 mph69%30.07 "Hg10 mi
3:50 AM32 °FClear.14 mph64%30.04 "Hg10 mi
1:50 AM34 °FClear.17 mph60%30.01 "Hg10 mi
1:20 AM34 °FClear.16 mph60%30.01 "Hg10 mi
12:50 AM34 °FClear.17 mph60%30.01 "Hg10 mi
12:20 AM36 °FClear.18 mph52%29.98 "Hg10 mi
11:50 PM
Apr 15
36 °FClear.16 mph52%29.98 "Hg10 mi
11:20 PM36 °FClear.15 mph52%29.98 "Hg10 mi
Weather by CustomWeather, © 2014

See weather overview